Time,TemperatureF,DewpointF,PressureIn,WindDirection,WindDirectionDegrees,WindSpeedMPH,WindSpeedGustMPH,Humidity,HourlyPrecipIn,Conditions,Clouds,dailyrainin,SolarRadiationWatts/m^2,SoftwareType,DateUTC
2013-02-03 00:01:00,27.0,19.0,-100.00,ENE,77,8.0,9.0,72,0.00,,,0.00,0.000000,,2013-02-03 07:01:00,
2013-02-03 00:11:00,27.0,19.0,-100.00,ENE,77,8.0,9.0,72,0.00,,,0.00,0.000000,,2013-02-03 07:11:00,
2013-02-03 00:21:00,27.0,19.0,-100.00,ENE,77,8.0,9.0,72,0.00,,,0.00,0.000000,,2013-02-03 07:21:00,
2013-02-03 00:31:00,27.0,19.0,-100.00,ENE,77,8.0,9.0,72,0.00,,,0.00,0.000000,,2013-02-03 07:31:00,
2013-02-03 00:52:00,27.0,19.0,-100.00,ENE,66,5.0,8.0,71,0.00,,,0.00,0.000000,,2013-02-03 07:52:00,
2013-02-03 01:01:00,27.0,19.0,-100.00,ENE,66,5.0,8.0,71,0.00,,,0.00,0.000000,,2013-02-03 08:01:00,
2013-02-03 01:11:00,27.0,19.0,-100.00,ENE,66,5.0,8.0,71,0.00,,,0.00,0.000000,,2013-02-03 08:11:00,
2013-02-03 01:22:00,27.0,19.0,-100.00,ENE,66,5.0,8.0,71,0.00,,,0.00,0.000000,,2013-02-03 08:22:00,
2013-02-03 01:32:00,27.0,19.0,-100.00,ENE,66,5.0,8.0,71,0.00,,,0.00,0.000000,,2013-02-03 08:32:00,
2013-02-03 01:52:00,25.0,18.0,-100.00,East,82,3.0,7.0,73,0.00,,,0.00,0.000000,,2013-02-03 08:52:00,
2013-02-03 02:02:00,25.0,18.0,-100.00,East,82,3.0,7.0,73,0.00,,,0.00,0.000000,,2013-02-03 09:02:00,
2013-02-03 02:11:00,25.0,18.0,-100.00,East,82,3.0,7.0,73,0.00,,,0.00,0.000000,,2013-02-03 09:11:00,
2013-02-03 02:21:00,25.0,18.0,-100.00,East,82,3.0,7.0,73,0.00,,,0.00,0.000000,,2013-02-03 09:21:00,
2013-02-03 02:31:00,25.0,18.0,-100.00,East,82,3.0,7.0,73,0.00,,,0.00,0.000000,,2013-02-03 09:31:00,
2013-02-03 02:52:00,26.0,17.0,-100.00,ENE,63,6.0,7.0,68,0.00,,,0.00,0.000000,,2013-02-03 09:52:00,
2013-02-03 03:01:00,26.0,17.0,-100.00,ENE,63,6.0,7.0,68,0.00,,,0.00,0.000000,,2013-02-03 10:01:00,
2013-02-03 03:11:00,26.0,17.0,-100.00,ENE,63,6.0,7.0,68,0.00,,,0.00,0.000000,,2013-02-03 10:11:00,
2013-02-03 03:21:00,26.0,17.0,-100.00,ENE,63,6.0,7.0,68,0.00,,,0.00,0.000000,,2013-02-03 10:21:00,
2013-02-03 03:31:00,26.0,17.0,-100.00,ENE,63,6.0,7.0,68,0.00,,,0.00,0.000000,,2013-02-03 10:31:00,
2013-02-03 03:52:00,23.0,17.0,-100.00,ENE,75,6.0,8.0,77,0.00,,,0.00,0.000000,,2013-02-03 10:52:00,
2013-02-03 04:02:00,23.0,17.0,-100.00,ENE,75,6.0,8.0,77,0.00,,,0.00,0.000000,,2013-02-03 11:02:00,
2013-02-03 04:11:00,23.0,17.0,-100.00,ENE,75,6.0,8.0,77,0.00,,,0.00,0.000000,,2013-02-03 11:11:00,
2013-02-03 04:22:00,23.0,17.0,-100.00,ENE,75,6.0,8.0,77,0.00,,,0.00,0.000000,,2013-02-03 11:22:00,
2013-02-03 04:31:00,23.0,17.0,-100.00,ENE,75,6.0,8.0,77,0.00,,,0.00,0.000000,,2013-02-03 11:31:00,
2013-02-03 04:52:00,23.0,17.0,-100.00,ENE,67,4.0,7.0,79,0.00,,,0.00,0.000000,,2013-02-03 11:52:00,
2013-02-03 05:02:00,23.0,17.0,-100.00,ENE,67,4.0,7.0,79,0.00,,,0.00,0.000000,,2013-02-03 12:02:00,
2013-02-03 05:11:00,23.0,17.0,-100.00,ENE,67,4.0,7.0,79,0.00,,,0.00,0.000000,,2013-02-03 12:11:00,
2013-02-03 05:22:00,23.0,17.0,-100.00,ENE,67,4.0,7.0,79,0.00,,,0.00,0.000000,,2013-02-03 12:22:00,
2013-02-03 05:32:00,23.0,17.0,-100.00,ENE,67,4.0,7.0,79,0.00,,,0.00,0.000000,,2013-02-03 12:32:00,
2013-02-03 05:53:00,22.0,16.0,-100.00,ENE,59,6.0,8.0,79,0.00,,,0.00,0.000000,,2013-02-03 12:53:00,
2013-02-03 06:03:00,22.0,16.0,-100.00,ENE,59,6.0,8.0,79,0.00,,,0.00,0.000000,,2013-02-03 13:03:00,
2013-02-03 06:11:00,22.0,16.0,-100.00,ENE,59,6.0,8.0,79,0.00,,,0.00,0.000000,,2013-02-03 13:11:00,
2013-02-03 06:21:00,22.0,16.0,-100.00,ENE,59,6.0,8.0,79,0.00,,,0.00,0.000000,,2013-02-03 13:21:00,
2013-02-03 06:32:00,22.0,16.0,-100.00,ENE,59,6.0,8.0,79,0.00,,,0.00,0.000000,,2013-02-03 13:32:00,
2013-02-03 06:52:00,23.0,17.0,-100.00,ENE,69,6.0,7.0,77,0.00,,,0.00,0.000000,,2013-02-03 13:52:00,
2013-02-03 07:02:00,23.0,17.0,-100.00,ENE,69,6.0,7.0,77,0.00,,,0.00,0.000000,,2013-02-03 14:02:00,
2013-02-03 07:11:00,23.0,17.0,-100.00,ENE,69,6.0,7.0,77,0.00,,,0.00,0.000000,,2013-02-03 14:11:00,
2013-02-03 07:21:00,23.0,17.0,-100.00,ENE,69,6.0,7.0,77,0.00,,,0.00,0.000000,,2013-02-03 14:21:00,
2013-02-03 07:31:00,23.0,17.0,-100.00,ENE,69,6.0,7.0,77,0.00,,,0.00,0.000000,,2013-02-03 14:31:00,
2013-02-03 07:52:00,21.0,17.0,-100.00,ENE,70,3.0,7.0,84,0.00,,,0.00,2.000000,,2013-02-03 14:52:00,
2013-02-03 08:03:00,21.0,17.0,-100.00,ENE,70,3.0,7.0,84,0.00,,,0.00,2.000000,,2013-02-03 15:03:00,
2013-02-03 08:11:00,21.0,17.0,-100.00,ENE,70,3.0,7.0,84,0.00,,,0.00,2.000000,,2013-02-03 15:11:00,
2013-02-03 08:21:00,21.0,17.0,-100.00,ENE,70,3.0,7.0,84,0.00,,,0.00,2.000000,,2013-02-03 15:21:00,
2013-02-03 08:32:00,21.0,17.0,-100.00,ENE,70,3.0,7.0,84,0.00,,,0.00,2.000000,,2013-02-03 15:32:00,
2013-02-03 08:52:00,24.0,18.0,-100.00,ENE,71,3.0,6.0,76,0.00,,,0.00,53.000000,,2013-02-03 15:52:00,
2013-02-03 09:02:00,24.0,18.0,-100.00,ENE,71,3.0,6.0,76,0.00,,,0.00,53.000000,,2013-02-03 16:02:00,
2013-02-03 09:11:00,24.0,18.0,-100.00,ENE,71,3.0,6.0,76,0.00,,,0.00,53.000000,,2013-02-03 16:11:00,
2013-02-03 09:21:00,24.0,18.0,-100.00,ENE,71,3.0,6.0,76,0.00,,,0.00,53.000000,,2013-02-03 16:21:00,
2013-02-03 09:32:00,24.0,18.0,-100.00,ENE,71,3.0,6.0,76,0.00,,,0.00,53.000000,,2013-02-03 16:32:00,
2013-02-03 09:52:00,27.0,18.0,-100.00,NE,51,3.0,7.0,67,0.00,,,0.00,177.000000,,2013-02-03 16:52:00,
2013-02-03 10:02:00,27.0,18.0,-100.00,NE,51,3.0,7.0,67,0.00,,,0.00,177.000000,,2013-02-03 17:02:00,
2013-02-03 10:11:00,27.0,18.0,-100.00,NE,51,3.0,7.0,67,0.00,,,0.00,177.000000,,2013-02-03 17:11:00,
2013-02-03 10:21:00,27.0,18.0,-100.00,NE,51,3.0,7.0,67,0.00,,,0.00,177.000000,,2013-02-03 17:21:00,
2013-02-03 10:31:00,27.0,18.0,-100.00,NE,51,3.0,7.0,67,0.00,,,0.00,177.000000,,2013-02-03 17:31:00,
2013-02-03 10:52:00,32.0,20.0,-100.00,NW,315,0.0,3.0,60,0.00,,,-99.99,230.000000,,2013-02-03 17:52:00,
2013-02-03 11:02:00,32.0,20.0,-100.00,NW,315,0.0,3.0,60,0.00,,,-99.99,230.000000,,2013-02-03 18:02:00,
2013-02-03 11:11:00,32.0,20.0,-100.00,NW,315,0.0,3.0,60,0.00,,,-99.99,230.000000,,2013-02-03 18:11:00,
2013-02-03 11:23:00,32.0,20.0,-100.00,NW,315,0.0,3.0,60,0.00,,,-99.99,230.000000,,2013-02-03 18:23:00,
2013-02-03 11:32:00,32.0,20.0,-100.00,NW,315,0.0,3.0,60,0.00,,,-99.99,230.000000,,2013-02-03 18:32:00,
2013-02-03 11:52:00,33.0,20.0,-100.00,SW,227,1.0,4.0,59,0.00,,,0.00,293.000000,,2013-02-03 18:52:00,
2013-02-03 12:02:00,33.0,20.0,-100.00,SW,227,1.0,4.0,59,0.00,,,0.00,293.000000,,2013-02-03 19:02:00,
2013-02-03 12:11:00,33.0,20.0,-100.00,SW,227,1.0,4.0,59,0.00,,,0.00,293.000000,,2013-02-03 19:11:00,
2013-02-03 12:21:00,33.0,20.0,-100.00,SW,227,1.0,4.0,59,0.00,,,0.00,293.000000,,2013-02-03 19:21:00,
2013-02-03 12:31:00,33.0,20.0,-100.00,SW,227,1.0,4.0,59,0.00,,,0.00,293.000000,,2013-02-03 19:31:00,
2013-02-03 12:52:00,38.0,21.0,-100.00,NNE,20,1.0,3.0,50,0.00,,,0.00,362.000000,,2013-02-03 19:52:00,
2013-02-03 13:01:00,38.0,21.0,-100.00,NNE,20,1.0,3.0,50,0.00,,,0.00,362.000000,,2013-02-03 20:01:00,
2013-02-03 13:11:00,38.0,21.0,-100.00,NNE,20,1.0,3.0,50,0.00,,,0.00,362.000000,,2013-02-03 20:11:00,
2013-02-03 13:21:00,38.0,21.0,-100.00,NNE,20,1.0,3.0,50,0.00,,,0.00,362.000000,,2013-02-03 20:21:00,
2013-02-03 13:32:00,38.0,21.0,-100.00,NNE,20,1.0,3.0,50,0.00,,,0.00,362.000000,,2013-02-03 20:32:00,
2013-02-03 13:52:00,36.0,18.0,-100.00,SSW,201,4.0,6.0,48,0.00,,,0.00,377.000000,,2013-02-03 20:52:00,
2013-02-03 14:03:00,36.0,18.0,-100.00,SSW,201,4.0,6.0,48,0.00,,,0.00,377.000000,,2013-02-03 21:03:00,
2013-02-03 14:11:00,36.0,18.0,-100.00,SSW,201,4.0,6.0,48,0.00,,,0.00,377.000000,,2013-02-03 21:11:00,
2013-02-03 14:21:00,36.0,18.0,-100.00,SSW,201,4.0,6.0,48,0.00,,,0.00,377.000000,,2013-02-03 21:21:00,
2013-02-03 14:32:00,36.0,18.0,-100.00,SSW,201,4.0,6.0,48,0.00,,,0.00,377.000000,,2013-02-03 21:32:00,
2013-02-03 14:52:00,36.0,20.0,-100.00,SSW,209,2.0,7.0,51,0.00,,,0.00,249.000000,,2013-02-03 21:52:00,
2013-02-03 15:01:00,36.0,20.0,-100.00,SSW,209,2.0,7.0,51,0.00,,,0.00,249.000000,,2013-02-03 22:01:00,
2013-02-03 15:11:00,36.0,20.0,-100.00,SSW,209,2.0,7.0,51,0.00,,,0.00,249.000000,,2013-02-03 22:11:00,
2013-02-03 15:21:00,36.0,20.0,-100.00,SSW,209,2.0,7.0,51,0.00,,,0.00,249.000000,,2013-02-03 22:21:00,
2013-02-03 15:31:00,36.0,20.0,-100.00,SSW,209,2.0,7.0,51,0.00,,,0.00,249.000000,,2013-02-03 22:31:00,
2013-02-03 15:52:00,36.0,20.0,-100.00,SSW,212,2.0,9.0,51,0.00,,,0.00,186.000000,,2013-02-03 22:52:00,
2013-02-03 16:01:00,36.0,20.0,-100.00,SSW,212,2.0,9.0,51,0.00,,,0.00,186.000000,,2013-02-03 23:01:00,
2013-02-03 16:11:00,36.0,20.0,-100.00,SSW,212,2.0,9.0,51,0.00,,,0.00,186.000000,,2013-02-03 23:11:00,
2013-02-03 16:21:00,36.0,20.0,-100.00,SSW,212,2.0,9.0,51,0.00,,,0.00,186.000000,,2013-02-03 23:21:00,
2013-02-03 16:32:00,36.0,20.0,-100.00,SSW,212,2.0,9.0,51,0.00,,,0.00,186.000000,,2013-02-03 23:32:00,
2013-02-03 16:52:00,34.0,20.0,-100.00,SW,232,2.0,6.0,57,0.00,,,0.00,113.000000,,2013-02-03 23:52:00,
2013-02-03 17:01:00,34.0,20.0,-100.00,SW,232,2.0,6.0,57,0.00,,,0.00,113.000000,,2013-02-04 00:01:00,
2013-02-03 17:11:00,34.0,20.0,-100.00,SW,232,2.0,6.0,57,0.00,,,0.00,113.000000,,2013-02-04 00:11:00,
2013-02-03 17:21:00,34.0,20.0,-100.00,SW,232,2.0,6.0,57,0.00,,,0.00,113.000000,,2013-02-04 00:21:00,
2013-02-03 17:31:00,34.0,20.0,-100.00,SW,232,2.0,6.0,57,0.00,,,0.00,113.000000,,2013-02-04 00:31:00,
2013-02-03 17:52:00,31.0,20.0,-100.00,SSE,160,3.0,6.0,64,0.00,,,0.00,25.000000,,2013-02-04 00:52:00,
2013-02-03 18:01:00,31.0,20.0,-100.00,SSE,160,3.0,6.0,64,0.00,,,0.00,25.000000,,2013-02-04 01:01:00,
2013-02-03 18:11:00,31.0,20.0,-100.00,SSE,160,3.0,6.0,64,0.00,,,0.00,25.000000,,2013-02-04 01:11:00,
2013-02-03 18:21:00,31.0,20.0,-100.00,SSE,160,3.0,6.0,64,0.00,,,0.00,25.000000,,2013-02-04 01:21:00,
2013-02-03 18:31:00,31.0,20.0,-100.00,SSE,160,3.0,6.0,64,0.00,,,0.00,25.000000,,2013-02-04 01:31:00,
2013-02-03 18:52:00,30.0,20.0,-100.00,SSW,194,2.0,5.0,66,0.00,,,0.00,1.000000,,2013-02-04 01:52:00,
2013-02-03 19:01:00,30.0,20.0,-100.00,SSW,194,2.0,5.0,66,0.00,,,0.00,1.000000,,2013-02-04 02:01:00,
2013-02-03 19:11:00,30.0,20.0,-100.00,SSW,194,2.0,5.0,66,0.00,,,0.00,1.000000,,2013-02-04 02:11:00,
2013-02-03 19:21:00,30.0,20.0,-100.00,SSW,194,2.0,5.0,66,0.00,,,0.00,1.000000,,2013-02-04 02:21:00,
2013-02-03 19:31:00,30.0,20.0,-100.00,SSW,194,2.0,5.0,66,0.00,,,0.00,1.000000,,2013-02-04 02:31:00,
2013-02-03 19:52:00,30.0,20.0,-100.00,SSW,195,4.0,5.0,67,0.00,,,0.00,0.000000,,2013-02-04 02:52:00,
2013-02-03 20:01:00,30.0,20.0,-100.00,SSW,195,4.0,5.0,67,0.00,,,0.00,0.000000,,2013-02-04 03:01:00,
2013-02-03 20:11:00,30.0,20.0,-100.00,SSW,195,4.0,5.0,67,0.00,,,0.00,0.000000,,2013-02-04 03:11:00,
2013-02-03 20:21:00,30.0,20.0,-100.00,SSW,195,4.0,5.0,67,0.00,,,0.00,0.000000,,2013-02-04 03:21:00,
2013-02-03 20:31:00,30.0,20.0,-100.00,SSW,195,4.0,5.0,67,0.00,,,0.00,0.000000,,2013-02-04 03:31:00,
2013-02-03 20:52:00,29.0,21.0,-100.00,SSW,201,3.0,5.0,71,0.00,,,0.00,0.000000,,2013-02-04 03:52:00,
2013-02-03 21:01:00,29.0,21.0,-100.00,SSW,201,3.0,5.0,71,0.00,,,0.00,0.000000,,2013-02-04 04:01:00,
2013-02-03 21:11:00,29.0,21.0,-100.00,SSW,201,3.0,5.0,71,0.00,,,0.00,0.000000,,2013-02-04 04:11:00,
2013-02-03 21:21:00,29.0,21.0,-100.00,SSW,201,3.0,5.0,71,0.00,,,0.00,0.000000,,2013-02-04 04:21:00,
2013-02-03 21:31:00,29.0,21.0,-100.00,SSW,201,3.0,5.0,71,0.00,,,0.00,0.000000,,2013-02-04 04:31:00,
2013-02-03 21:52:00,29.0,20.0,-100.00,SSW,198,3.0,6.0,70,0.00,,,0.00,0.000000,,2013-02-04 04:52:00,
2013-02-03 22:03:00,29.0,20.0,-100.00,SSW,198,3.0,6.0,70,0.00,,,0.00,0.000000,,2013-02-04 05:03:00,
2013-02-03 22:11:00,29.0,20.0,-100.00,SSW,198,3.0,6.0,70,0.00,,,0.00,0.000000,,2013-02-04 05:11:00,
2013-02-03 22:22:00,29.0,20.0,-100.00,SSW,198,3.0,6.0,70,0.00,,,0.00,0.000000,,2013-02-04 05:22:00,
2013-02-03 22:33:00,29.0,20.0,-100.00,SSW,198,3.0,6.0,70,0.00,,,0.00,0.000000,,2013-02-04 05:33:00,
2013-02-03 22:52:00,29.0,20.0,-100.00,SSW,199,3.0,4.0,70,0.00,,,0.00,0.000000,,2013-02-04 05:52:00,
2013-02-03 23:01:00,29.0,20.0,-100.00,SSW,199,3.0,4.0,70,0.00,,,0.00,0.000000,,2013-02-04 06:01:00,
2013-02-03 23:11:00,29.0,20.0,-100.00,SSW,199,3.0,4.0,70,0.00,,,0.00,0.000000,,2013-02-04 06:11:00,
2013-02-03 23:21:00,29.0,20.0,-100.00,SSW,199,3.0,4.0,70,0.00,,,0.00,0.000000,,2013-02-04 06:21:00,
2013-02-03 23:31:00,29.0,20.0,-100.00,SSW,199,3.0,4.0,70,0.00,,,0.00,0.000000,,2013-02-04 06:31:00,
2013-02-03 23:52:00,26.0,19.0,-100.00,ENE,57,2.0,4.0,76,0.00,,,0.00,0.000000,,2013-02-04 06:52:00,